Skip Page Navigation
NASA JPL Caltech
NASA Logo - Jet Propulsion Laboratory + View the NASA Portal
+ Center for Near-Earth Object Studies
JPL Home Earth Solar System Stars & Galaxies Technology
JPL Solar System Dynamics
BODIES ORBITS EPHEMERIDES TOOLS PHYSICAL DATA DISCOVERY FAQ SITE MAP
JPL Small-Body Database Browser
Search: [ help ]  
48010 (2001 BD70)
Classification: Main-belt Asteroid          SPK-ID: 2048010
Ephemeris | Orbit Diagram | Orbital Elements | Mission Design | Physical Parameters | Discovery Circumstances | Close-Approach Data ]

[ show orbit diagram ]
Orbital Elements at Epoch 2459000.5 (2020-May-31.0) TDB
Reference: JPL 22 (heliocentric ecliptic J2000)
 Element Value Uncertainty (1-sigma)   Units 
e .2548916829328256 5.0128e-08  
a 2.314703750498328 1.1455e-08 au
q 1.724705016042886 1.1691e-07 au
i 23.28803917765551 6.6196e-06 deg
node 347.9251840211132 1.0897e-05 deg
peri 313.6267891299932 1.589e-05 deg
M 47.69880729252885 1.2062e-05 deg
tp 2458830.069794071204
(2019-Dec-12.56979407)
4.2821e-05 TDB
period 1286.297868164442
3.52
9.5482e-06
2.614e-08
d
yr
n .2798729663710965 2.0775e-09 deg/d
Q 2.90470248495377 1.4374e-08 au
  Orbit Determination Parameters
   # obs. used (total)      1319  
   data-arc span      11709 days (32.06 yr)  
   first obs. used      1988-10-09  
   last obs. used      2020-10-30  
   planetary ephem.      DE431  
   SB-pert. ephem.      SB431-N16  
   condition code      0  
   norm. resid. RMS      .49052  
   source      ORB  
   producer      Otto Matic  
   solution date      2020-Nov-12 23:39:24  

Additional Information
 Earth MOID = .770323 au 
 Jupiter MOID = 2.58756 au 
 T_jup = 3.433 
[ show covariance matrix ]

Ephemeris | Orbit Diagram | Orbital Elements | Mission Design | Physical Parameters | Discovery Circumstances | Close-Approach Data ]

Physical Parameter Table
Parameter Symbol Value Units Sigma Reference Notes
absolute magnitude H 14.3   n/a MPO436118  

48010 (2001 BD70)          Discovered 2001-Jan-31 by LINEAR at Socorro
Reference: 20020921/Numbers.arcLast Updated: 2004-04-19

[ show close-approach data ]
Alternate Designations
 2001 BD70 = 1988 TY2 
Ephemeris | Orbit Diagram | Orbital Elements | Mission Design | Physical Parameters | Discovery Circumstances | Close-Approach Data ]
ABOUT SSD CREDITS/AWARDS PRIVACY/COPYRIGHT GLOSSARY LINKS
FirstGov 2020-Nov-28 15:37 UT
(server date/time)  
NASA Home Page
Site Manager:   Ryan S. Park
Webmaster  Alan B. Chamberlin